Time,TemperatureF,DewpointF,PressureIn,WindDirection,WindDirectionDegrees,WindSpeedMPH,WindSpeedGustMPH,Humidity,HourlyPrecipIn,Conditions,Clouds,dailyrainin,SoftwareType,DateUTC
2013-05-13 00:01:00,64.0,56.0,29.81,South,190,0.0,0.0,76,0.00,,,-99.99,,2013-05-13 07:01:00,
2013-05-13 00:11:00,64.0,56.0,29.81,South,190,0.0,0.0,76,0.00,,,-99.99,,2013-05-13 07:11:00,
2013-05-13 00:21:00,64.0,56.0,29.81,South,190,0.0,0.0,76,0.00,,,-99.99,,2013-05-13 07:21:00,
2013-05-13 00:31:00,64.0,56.0,29.81,South,190,0.0,0.0,76,0.00,,,-99.99,,2013-05-13 07:31:00,
2013-05-13 00:42:00,64.0,56.0,29.81,South,190,0.0,0.0,76,0.00,,,-99.99,,2013-05-13 07:42:00,
2013-05-13 00:52:00,64.0,56.0,29.81,South,190,0.0,0.0,76,0.00,,,-99.99,,2013-05-13 07:52:00,
2013-05-13 01:01:00,63.0,56.0,29.82,South,190,0.0,0.0,77,0.00,,,-99.99,,2013-05-13 08:01:00,
2013-05-13 01:11:00,63.0,56.0,29.82,South,190,0.0,0.0,77,0.00,,,-99.99,,2013-05-13 08:11:00,
2013-05-13 01:21:00,63.0,56.0,29.82,South,190,0.0,0.0,77,0.00,,,-99.99,,2013-05-13 08:21:00,
2013-05-13 01:31:00,62.0,55.0,29.82,South,190,0.0,0.0,78,0.00,,,-99.99,,2013-05-13 08:31:00,
2013-05-13 01:42:00,62.0,55.0,29.82,South,190,0.0,0.0,78,0.00,,,-99.99,,2013-05-13 08:42:00,
2013-05-13 01:52:00,62.0,55.0,29.82,South,190,0.0,0.0,78,0.00,,,-99.99,,2013-05-13 08:52:00,
2013-05-13 02:01:00,62.0,56.0,29.83,South,190,0.0,0.0,80,0.00,,,-99.99,,2013-05-13 09:01:00,
2013-05-13 02:11:00,62.0,56.0,29.83,South,190,0.0,0.0,80,0.00,,,-99.99,,2013-05-13 09:11:00,
2013-05-13 02:21:00,62.0,56.0,29.83,South,190,0.0,0.0,80,0.00,,,-99.99,,2013-05-13 09:21:00,
2013-05-13 02:32:00,62.0,56.0,29.81,South,190,0.0,0.0,80,0.00,,,-99.99,,2013-05-13 09:32:00,
2013-05-13 02:42:00,62.0,56.0,29.81,South,190,0.0,0.0,80,0.00,,,-99.99,,2013-05-13 09:42:00,
2013-05-13 02:52:00,62.0,56.0,29.81,South,190,0.0,0.0,80,0.00,,,-99.99,,2013-05-13 09:52:00,
2013-05-13 03:02:00,62.0,56.0,29.81,South,188,0.0,1.0,81,0.00,,,-99.99,,2013-05-13 10:02:00,
2013-05-13 03:12:00,62.0,56.0,29.81,South,188,0.0,1.0,81,0.00,,,-99.99,,2013-05-13 10:12:00,
2013-05-13 03:22:00,62.0,56.0,29.81,South,188,0.0,1.0,81,0.00,,,-99.99,,2013-05-13 10:22:00,
2013-05-13 03:32:00,61.0,55.0,29.81,SSE,159,0.0,2.0,81,0.00,,,-99.99,,2013-05-13 10:32:00,
2013-05-13 03:43:00,61.0,55.0,29.81,SSE,159,0.0,2.0,81,0.00,,,-99.99,,2013-05-13 10:43:00,
2013-05-13 03:52:00,61.0,55.0,29.81,SSE,159,0.0,2.0,81,0.00,,,-99.99,,2013-05-13 10:52:00,
2013-05-13 04:02:00,61.0,55.0,29.80,ESE,103,1.0,4.0,81,0.00,,,-99.99,,2013-05-13 11:02:00,
2013-05-13 04:12:00,61.0,55.0,29.80,ESE,103,1.0,4.0,81,0.00,,,-99.99,,2013-05-13 11:12:00,
2013-05-13 04:21:00,61.0,55.0,29.80,ESE,103,1.0,4.0,81,0.00,,,-99.99,,2013-05-13 11:21:00,
2013-05-13 04:32:00,61.0,55.0,29.79,ESE,103,0.0,0.0,80,0.00,,,-99.99,,2013-05-13 11:32:00,
2013-05-13 04:42:00,61.0,55.0,29.79,ESE,103,0.0,0.0,80,0.00,,,-99.99,,2013-05-13 11:42:00,
2013-05-13 04:52:00,61.0,55.0,29.79,ESE,103,0.0,0.0,80,0.00,,,-99.99,,2013-05-13 11:52:00,
2013-05-13 05:01:00,60.0,54.0,29.79,ESE,103,0.0,0.0,82,0.00,,,-99.99,,2013-05-13 12:01:00,
2013-05-13 05:11:00,60.0,54.0,29.79,ESE,103,0.0,0.0,82,0.00,,,-99.99,,2013-05-13 12:11:00,
2013-05-13 05:21:00,60.0,54.0,29.79,ESE,103,0.0,0.0,82,0.00,,,-99.99,,2013-05-13 12:21:00,
2013-05-13 05:32:00,60.0,54.0,29.79,ESE,103,0.0,1.0,82,0.00,,,-99.99,,2013-05-13 12:32:00,
2013-05-13 05:42:00,60.0,54.0,29.79,ESE,103,0.0,1.0,82,0.00,,,-99.99,,2013-05-13 12:42:00,
2013-05-13 05:52:00,60.0,54.0,29.79,ESE,103,0.0,1.0,82,0.00,,,-99.99,,2013-05-13 12:52:00,
2013-05-13 06:01:00,59.0,54.0,29.80,ESE,103,0.0,1.0,83,0.00,,,-99.99,,2013-05-13 13:01:00,
2013-05-13 06:11:00,59.0,54.0,29.80,ESE,103,0.0,1.0,83,0.00,,,-99.99,,2013-05-13 13:11:00,
2013-05-13 06:21:00,59.0,54.0,29.80,ESE,103,0.0,1.0,83,0.00,,,-99.99,,2013-05-13 13:21:00,
2013-05-13 06:31:00,60.0,55.0,29.81,ESE,103,0.0,0.0,83,0.00,,,-99.99,,2013-05-13 13:31:00,
2013-05-13 06:42:00,60.0,55.0,29.81,ESE,103,0.0,0.0,83,0.00,,,-99.99,,2013-05-13 13:42:00,
2013-05-13 06:52:00,60.0,55.0,29.81,ESE,103,0.0,0.0,83,0.00,,,-99.99,,2013-05-13 13:52:00,
2013-05-13 07:01:00,60.0,55.0,29.83,ESE,103,0.0,0.0,83,0.00,,,-99.99,,2013-05-13 14:01:00,
2013-05-13 07:11:00,60.0,55.0,29.83,ESE,103,0.0,0.0,83,0.00,,,-99.99,,2013-05-13 14:11:00,
2013-05-13 07:22:00,60.0,55.0,29.83,ESE,103,0.0,0.0,83,0.00,,,-99.99,,2013-05-13 14:22:00,
2013-05-13 07:31:00,62.0,56.0,29.83,ESE,103,0.0,1.0,82,0.00,,,-99.99,,2013-05-13 14:31:00,
2013-05-13 07:42:00,62.0,56.0,29.83,ESE,103,0.0,1.0,82,0.00,,,-99.99,,2013-05-13 14:42:00,
2013-05-13 07:52:00,62.0,56.0,29.83,ESE,103,0.0,1.0,82,0.00,,,-99.99,,2013-05-13 14:52:00,
2013-05-13 08:01:00,63.0,57.0,29.84,ESE,105,0.0,2.0,80,0.00,,,-99.99,,2013-05-13 15:01:00,
2013-05-13 08:11:00,63.0,57.0,29.84,ESE,105,0.0,2.0,80,0.00,,,-99.99,,2013-05-13 15:11:00,
2013-05-13 08:21:00,63.0,57.0,29.84,ESE,105,0.0,2.0,80,0.00,,,-99.99,,2013-05-13 15:21:00,
2013-05-13 08:31:00,65.0,58.0,29.84,SW,236,0.0,1.0,78,0.00,,,-99.99,,2013-05-13 15:31:00,
2013-05-13 08:42:00,65.0,58.0,29.84,SW,236,0.0,1.0,78,0.00,,,-99.99,,2013-05-13 15:42:00,
2013-05-13 08:53:00,65.0,58.0,29.84,SW,236,0.0,1.0,78,0.00,,,-99.99,,2013-05-13 15:53:00,
2013-05-13 09:03:00,66.0,57.0,29.85,West,271,0.0,4.0,74,0.00,,,-99.99,,2013-05-13 16:03:00,
2013-05-13 09:11:00,66.0,57.0,29.85,West,271,0.0,4.0,74,0.00,,,-99.99,,2013-05-13 16:11:00,
2013-05-13 09:21:00,66.0,57.0,29.85,West,271,0.0,4.0,74,0.00,,,-99.99,,2013-05-13 16:21:00,
2013-05-13 09:33:00,66.0,57.0,29.85,West,271,0.0,4.0,74,0.00,,,-99.99,,2013-05-13 16:33:00,
2013-05-13 10:32:00,76.0,60.0,29.85,WSW,257,1.0,6.0,58,0.00,,,-99.99,,2013-05-13 17:32:00,
2013-05-13 10:42:00,76.0,60.0,29.85,WSW,257,1.0,6.0,58,0.00,,,-99.99,,2013-05-13 17:42:00,
2013-05-13 10:54:00,76.0,60.0,29.85,WSW,257,1.0,6.0,58,0.00,,,-99.99,,2013-05-13 17:54:00,
2013-05-13 11:03:00,76.0,60.0,29.85,WSW,257,1.0,6.0,58,0.00,,,-99.99,,2013-05-13 18:03:00,
2013-05-13 11:32:00,80.0,60.0,29.85,NW,315,1.0,7.0,50,0.00,,,-99.99,,2013-05-13 18:32:00,
2013-05-13 11:42:00,80.0,60.0,29.85,NW,315,1.0,7.0,50,0.00,,,-99.99,,2013-05-13 18:42:00,
2013-05-13 11:52:00,80.0,60.0,29.85,NW,315,1.0,7.0,50,0.00,,,-99.99,,2013-05-13 18:52:00,
2013-05-13 12:01:00,82.0,60.0,29.85,WSW,244,0.0,3.0,47,0.00,,,-99.99,,2013-05-13 19:01:00,
2013-05-13 12:11:00,82.0,60.0,29.85,WSW,244,0.0,3.0,47,0.00,,,-99.99,,2013-05-13 19:11:00,
2013-05-13 12:21:00,82.0,60.0,29.85,WSW,244,0.0,3.0,47,0.00,,,-99.99,,2013-05-13 19:21:00,
2013-05-13 12:32:00,82.0,59.0,29.85,WSW,254,3.0,11.0,45,0.00,,,-99.99,,2013-05-13 19:32:00,
2013-05-13 12:44:00,82.0,59.0,29.85,WSW,254,3.0,11.0,45,0.00,,,-99.99,,2013-05-13 19:44:00,
2013-05-13 12:53:00,82.0,59.0,29.85,WSW,254,3.0,11.0,45,0.00,,,-99.99,,2013-05-13 19:53:00,
2013-05-13 13:01:00,83.0,58.0,29.85,SSW,194,2.0,11.0,43,0.00,,,-99.99,,2013-05-13 20:01:00,
2013-05-13 13:11:00,83.0,58.0,29.85,SSW,194,2.0,11.0,43,0.00,,,-99.99,,2013-05-13 20:11:00,
2013-05-13 13:23:00,83.0,58.0,29.85,SSW,194,2.0,11.0,43,0.00,,,-99.99,,2013-05-13 20:23:00,
2013-05-13 13:33:00,83.0,58.0,29.85,SSW,194,1.0,5.0,43,0.00,,,-99.99,,2013-05-13 20:33:00,
2013-05-13 13:44:00,83.0,58.0,29.85,SSW,194,1.0,5.0,43,0.00,,,-99.99,,2013-05-13 20:44:00,
2013-05-13 13:53:00,83.0,58.0,29.85,SSW,194,1.0,5.0,43,0.00,,,-99.99,,2013-05-13 20:53:00,
2013-05-13 14:02:00,83.0,58.0,29.84,SSW,201,1.0,5.0,42,0.00,,,-99.99,,2013-05-13 21:02:00,
2013-05-13 14:14:00,83.0,58.0,29.84,SSW,201,1.0,5.0,42,0.00,,,-99.99,,2013-05-13 21:14:00,
2013-05-13 14:23:00,83.0,58.0,29.84,SSW,201,1.0,5.0,42,0.00,,,-99.99,,2013-05-13 21:23:00,
2013-05-13 14:33:00,83.0,57.0,29.84,WSW,250,1.0,6.0,41,0.00,,,-99.99,,2013-05-13 21:33:00,
2013-05-13 14:43:00,83.0,57.0,29.84,WSW,250,1.0,6.0,41,0.00,,,-99.99,,2013-05-13 21:43:00,
2013-05-13 14:53:00,83.0,57.0,29.84,WSW,250,1.0,6.0,41,0.00,,,-99.99,,2013-05-13 21:53:00,
2013-05-13 15:02:00,84.0,59.0,29.83,NW,315,1.0,5.0,43,0.00,,,-99.99,,2013-05-13 22:02:00,
2013-05-13 15:12:00,84.0,59.0,29.83,NW,315,1.0,5.0,43,0.00,,,-99.99,,2013-05-13 22:12:00,
2013-05-13 15:22:00,84.0,59.0,29.83,NW,315,1.0,5.0,43,0.00,,,-99.99,,2013-05-13 22:22:00,
2013-05-13 15:32:00,84.0,59.0,29.83,NW,315,1.0,5.0,43,0.00,,,-99.99,,2013-05-13 22:32:00,
2013-05-13 16:01:00,80.0,58.0,29.82,West,272,2.0,9.0,47,0.00,,,-99.99,,2013-05-13 23:01:00,
2013-05-13 16:12:00,80.0,58.0,29.82,West,272,2.0,9.0,47,0.00,,,-99.99,,2013-05-13 23:12:00,
2013-05-13 16:23:00,80.0,58.0,29.82,West,272,2.0,9.0,47,0.00,,,-99.99,,2013-05-13 23:23:00,
2013-05-13 16:33:00,80.0,58.0,29.82,West,272,2.0,9.0,47,0.00,,,-99.99,,2013-05-13 23:33:00,
2013-05-13 17:02:00,79.0,58.0,29.81,West,263,1.0,6.0,48,0.00,,,-99.99,,2013-05-14 00:02:00,
2013-05-13 17:12:00,79.0,58.0,29.81,West,263,1.0,6.0,48,0.00,,,-99.99,,2013-05-14 00:12:00,
2013-05-13 17:22:00,79.0,58.0,29.81,West,263,1.0,6.0,48,0.00,,,-99.99,,2013-05-14 00:22:00,
2013-05-13 17:31:00,79.0,56.0,29.80,WSW,238,0.0,5.0,46,0.00,,,-99.99,,2013-05-14 00:31:00,
2013-05-13 17:42:00,79.0,56.0,29.80,WSW,238,0.0,5.0,46,0.00,,,-99.99,,2013-05-14 00:42:00,
2013-05-13 17:51:00,79.0,56.0,29.80,WSW,238,0.0,5.0,46,0.00,,,-99.99,,2013-05-14 00:51:00,
2013-05-13 18:01:00,78.0,57.0,29.80,West,274,0.0,4.0,48,0.00,,,-99.99,,2013-05-14 01:01:00,
2013-05-13 18:11:00,78.0,57.0,29.80,West,274,0.0,4.0,48,0.00,,,-99.99,,2013-05-14 01:11:00,
2013-05-13 18:21:00,78.0,57.0,29.80,West,274,0.0,4.0,48,0.00,,,-99.99,,2013-05-14 01:21:00,
2013-05-13 18:31:00,78.0,57.0,29.80,West,274,0.0,4.0,48,0.00,,,-99.99,,2013-05-14 01:31:00,
2013-05-13 19:32:00,71.0,55.0,29.80,West,278,1.0,7.0,58,0.00,,,-99.99,,2013-05-14 02:32:00,
2013-05-13 19:42:00,71.0,55.0,29.80,West,278,1.0,7.0,58,0.00,,,-99.99,,2013-05-14 02:42:00,
2013-05-13 19:52:00,71.0,55.0,29.80,West,278,1.0,7.0,58,0.00,,,-99.99,,2013-05-14 02:52:00,
2013-05-13 20:01:00,68.0,56.0,29.81,West,276,0.0,4.0,65,0.00,,,-99.99,,2013-05-14 03:01:00,
2013-05-13 20:11:00,68.0,56.0,29.81,West,276,0.0,4.0,65,0.00,,,-99.99,,2013-05-14 03:11:00,
2013-05-13 20:21:00,68.0,56.0,29.81,West,276,0.0,4.0,65,0.00,,,-99.99,,2013-05-14 03:21:00,
2013-05-13 20:32:00,64.0,55.0,29.81,WSW,257,1.0,5.0,72,0.00,,,-99.99,,2013-05-14 03:32:00,
2013-05-13 20:42:00,64.0,55.0,29.81,WSW,257,1.0,5.0,72,0.00,,,-99.99,,2013-05-14 03:42:00,
2013-05-13 20:53:00,64.0,55.0,29.81,WSW,257,1.0,5.0,72,0.00,,,-99.99,,2013-05-14 03:53:00,
2013-05-13 21:02:00,62.0,54.0,29.83,WNW,290,0.0,6.0,75,0.00,,,-99.99,,2013-05-14 04:02:00,
2013-05-13 21:13:00,62.0,54.0,29.83,WNW,290,0.0,6.0,75,0.00,,,-99.99,,2013-05-14 04:13:00,
2013-05-13 21:22:00,62.0,54.0,29.83,WNW,290,0.0,6.0,75,0.00,,,-99.99,,2013-05-14 04:22:00,
2013-05-13 21:32:00,62.0,54.0,29.83,WNW,290,0.0,6.0,75,0.00,,,-99.99,,2013-05-14 04:32:00,
2013-05-13 22:01:00,59.0,53.0,29.83,West,275,0.0,0.0,80,0.00,,,-99.99,,2013-05-14 05:01:00,
2013-05-13 22:12:00,59.0,53.0,29.83,West,275,0.0,0.0,80,0.00,,,-99.99,,2013-05-14 05:12:00,
2013-05-13 22:21:00,59.0,53.0,29.83,West,275,0.0,0.0,80,0.00,,,-99.99,,2013-05-14 05:21:00,
2013-05-13 22:32:00,59.0,54.0,29.83,West,275,0.0,0.0,82,0.00,,,-99.99,,2013-05-14 05:32:00,
2013-05-13 22:42:00,59.0,54.0,29.83,West,275,0.0,0.0,82,0.00,,,-99.99,,2013-05-14 05:42:00,
2013-05-13 22:52:00,59.0,54.0,29.83,West,275,0.0,0.0,82,0.00,,,-99.99,,2013-05-14 05:52:00,
2013-05-13 23:01:00,58.0,53.0,29.83,West,275,0.0,0.0,82,0.00,,,-99.99,,2013-05-14 06:01:00,
2013-05-13 23:12:00,58.0,53.0,29.83,West,275,0.0,0.0,82,0.00,,,-99.99,,2013-05-14 06:12:00,
2013-05-13 23:22:00,58.0,53.0,29.83,West,275,0.0,0.0,82,0.00,,,-99.99,,2013-05-14 06:22:00,
2013-05-13 23:31:00,58.0,53.0,29.83,West,275,0.0,0.0,83,0.00,,,-99.99,,2013-05-14 06:31:00,
2013-05-13 23:42:00,58.0,53.0,29.83,West,275,0.0,0.0,83,0.00,,,-99.99,,2013-05-14 06:42:00,
2013-05-13 23:52:00,58.0,53.0,29.83,West,275,0.0,0.0,83,0.00,,,-99.99,,2013-05-14 06:52:00,